Regional Weather Roundup
Issued by NWS

Home | Current Version | Previous Version | Graphics & Text | Print | Product List | Glossary On
Versions: 1 2 3 4 5 6 7 8 9 10 11 12 13 14 15 16 17 18 19 20 21 22 23 24 25 26 27 28 29 30 31 32 33 34 35 36 37 38 39 40 41 42 43 44 45 46 47 48 49 50
673
ASUS43 KMKX 011511
RWRWI

WISCONSIN REGIONAL WEATHER ROUNDUP
NATIONAL WEATHER SERVICE MILWAUKEE/SULLIVAN WI
1000 AM CDT SUN MAY 01 2016

NOTE: "FAIR" INDICATES FEW OR NO CLOUDS BELOW 12,000 FEET WITH NO
SIGNIFICANT WEATHER AND/OR OBSTRUCTIONS TO VISIBILITY.

WIZ001-002-006>008-014>016-023>028-011600-
NORTHWEST WISCONSIN

CITY           SKY/WX    TMP DP  RH WIND       PRES   REMARKS
SUPERIOR ARPT  CLOUDY    45  35  68 NE16      30.27F
ASHLAND        CLOUDY    41  37  86 NE15      30.26R
HAYWARD        PTSUNNY   44  35  70 N14       30.21S
SIREN          SUNNY     49  35  58 NE15G22   30.20F
CUMBERLAND     SUNNY     46  34  61 N9        30.17S
RICE LAKE      SUNNY     48  36  63 N15       30.18S
CHETEK         SUNNY     50  35  55 N7        30.16S
LADYSMITH      MOSUNNY   47  36  66 N10       30.17F
EAU CLAIRE     SUNNY     51  35  54 VRB5      30.13F
MENOMONIE      SUNNY     52  34  50 N6        30.14F
NEW RICHMOND   SUNNY     49  36  59 NE9       30.16F
OSCEOLA        SUNNY     50  37  61 NE10G16   30.20F
$$

WIZ003>005-009-010-017-018-011600-
NORTH CENTRAL WISCONSIN

CITY           SKY/WX    TMP DP  RH WIND       PRES   REMARKS
MANITOWISH WTR MOSUNNY   47  36  64 N7        30.16F
ARBOR VITAE    SUNNY     48  36  64 NE5       30.15F
WOODRUFF       SUNNY     48  36  64 NE5       30.15F
RHINELANDER    SUNNY     49  34  56 E6        30.14F
EAGLE RIVER    SUNNY     48  33  54 E8        30.14F
LAND O LAKES   SUNNY     47  35  61 N8        30.17S
PHILLIPS       SUNNY     46  36  68 N8        30.15S
TOMAHAWK       SUNNY     48  34  58 N5        30.15S
MEDFORD        CLOUDY    50  36  59 NE6       30.12S
MERRILL        MOSUNNY   51  33  49 E9        30.13S
$$

WIZ029-030-035-036-043>047-011600-
CENTRAL WISCONSIN

CITY           SKY/WX    TMP DP  RH WIND       PRES   REMARKS
WAUSAU         CLOUDY    51  32  48 E9        30.11S
MOSINEE        CLOUDY    48  34  57 N8        30.13R
MARSHFIELD     CLOUDY    50  33  52 NE9       30.11S
STEVENS POINT  CLOUDY    46  33  60 NE8       30.12R
WAUPACA        CLOUDY    48  37  65 NE5       30.12R
WAUTOMA        CLOUDY    47  38  71 NE12      30.10S
WISC RAPIDS    CLOUDY    48  32  53 NE8       30.12S
CAMP DOUGLAS   CLOUDY    48  43  81 NE10      30.09S
$$

WIZ011>013-019>022-031-037>040-048>050-011600-
NORTHEAST WISCONSIN

CITY           SKY/WX    TMP DP  RH WIND       PRES   REMARKS
ANTIGO         CLOUDY    46  34  61 N7        30.12F
SHAWANO        CLOUDY    49  35  59 NE6       30.12S
OCONTO         CLOUDY    49  37  62 NE9       30.11F
STURGEON BAY   CLOUDY    46  37  71 N6        30.14R
GREEN BAY      CLOUDY    47  38  71 N13       30.11R
MANITOWOC      CLOUDY    45  37  73 N9G21     30.10R
APPLETON       CLOUDY    46  36  66 NE10G16   30.09R
CLINTONVILLE   CLOUDY    46  34  61 NE7       30.11S
OSHKOSH        CLOUDY    45  39  79 NE9       30.09S
$$

WIZ032>034-041-042-053>061-011600-
SOUTHWEST WISCONSIN

CITY           SKY/WX    TMP DP  RH WIND       PRES   REMARKS
LA CROSSE      CLOUDY    52  37  56 N10       30.09F
SPARTA         CLOUDY    50  38  62 NE9G16    30.10S
VIROQUA        CLOUDY    47  38  70 NE14      30.07S
BOSCOBEL       CLOUDY    51  40  65 VRB6      30.06S
PRAIRIE DU CHI CLOUDY    48  38  67 NE10G20   30.05S
PLATTEVILLE    CLOUDY    47  43  85 E17       30.03R
$$

WIZ056-057-062-063-064-067-068-011600-
SOUTH CENTRAL WISCONSIN

CITY           SKY/WX    TMP DP  RH WIND       PRES   REMARKS
REEDSBURG      CLOUDY    47  38  71 NE9       30.06F
BARABOO/DELLS  CLOUDY    45  38  76 NE10      30.07S
LONE ROCK      CLOUDY    49  38  65 NE10      30.06S
MINERAL POINT  CLOUDY    46  41  81 NE20      30.02F
MADISON        CLOUDY    47  40  76 NE16      30.04F
MIDDLETON        N/A     48  41  75 NE10G20   30.05S
WATERTOWN      CLOUDY    46  44  93 NE14      30.05R
MONROE         CLOUDY    43  43 100 NE15      30.02S
JANESVILLE     CLOUDY    46  46 100 NE14G20   30.02S
$$

WIZ051-052-058>065-066-070>072-011600-
SOUTHEAST WISCONSIN

CITY           SKY/WX    TMP DP  RH WIND       PRES   REMARKS
MILWAUKEE      CLOUDY    43  41  93 N17       30.04S
WAUKESHA       CLOUDY    39  39 100 NE14      30.05S FOG     WCI  31
MILWAUKEE/TIMM CLOUDY    43  39  87 NE10      30.06R
RACINE         CLOUDY    44  40  85 N14G23    30.04F
BURLINGTON     CLOUDY    43  43  99 NE9G22    30.02R FOG
KENOSHA        CLOUDY    45  43  93 NE10      30.03R FOG
FOND DU LAC    CLOUDY    47  41  80 NE9       30.08S
SHEBOYGAN      CLOUDY    47  40  76 NE13      30.08R
WEST BEND      CLOUDY    45  41  87 NE12      30.06S
JUNEAU         CLOUDY    43  41  90 NE9G17    30.07S
$$

LSZ147-162-011600-
LAKE SUPERIOR

STATION/POSITION TIME  TEMP    WIND        PRES    WAVE
                       AIR SEA DIR/SP/G            HT/PER
                 (UTC) (F)     (DEG/KT/KT) (MB)    (FT/S)
W MID LAKE BUOY  1450   38 37   40/ 12/ 14 1025.2R   3/ 5
DEVILS ISLAND    1500   39      50/ 12/ 14 1025.8R
SAXON HARBOR     1440   39      20/  8/ 10 1023.7R
$$

LMZ867-665-643>646-011600-
LAKE MICHIGAN

STATION/POSITION TIME  TEMP    WIND        PRES    WAVE
                       AIR SEA DIR/SP/G            HT/PER
                 (UTC) (F)     (DEG/KT/KT) (MB)    (FT/S)
CHAMBERS ISLAND  1400   42      10/  9/ 10 1020.3R
N MID LAKE BUOY  1450   40 39   30/ 10/ 12 1020.4R   1/ 3
NORTHPORT PIER   1400   46      50/  9/ 14 1020.0R
ALGOMA LAKESHORE 1415          360/  8/ 10   N/A
KEWAUNEE LAKESHO 1400   44      10/ 10/ 14 1018.2R
SHEBOYGAN LAKESH 1500   42     360/ 17/ 20 1019.2R
PORT WASHINGTON  1400   43      20/  8/ 13 1019.0R
S MID LAKE BUOY  1450   42 40   40/ 12/ 14 1016.3R   3/ 4
KENOSHA   LAKESH 1500   43      20/ 20/ 23 1016.6S
$$

TC  - TEMPERATURE IN CELSIUS
VSB - VISIBILITY IN STATUTE MILES
WCI - WIND CHILL INDEX
HX  - HEAT INDEX





USA.gov is the U.S. government's official web portal to all federal, state and local government web resources and services.